Temperature
23 22 22 22 23 25 27 27 28 28 29 29 29 28 26 25 24 22 21 22 21 21 21 21 21 21 20 20 20 20 20 20 20 19 19 19 19 19 19 19 19 19 19 19 19 19 19 19 19
23 22 22 23 24 26 26 27 28 29 29 29 28 27 26 25 23 22 22 21 21 20 21 21 21 20 20 20 20 20 20 20 20 19 19 19 19 19 19 19 19 19 19 19 19 19 19 19 19
23 23 24 24 27 26 27 28 28 29 29 29 28 26 24 24 23 22 22 21 21 20 20 20 20 20 20 20 20 19 19 19 19 19 19 19 19 19 19 19 19 19 19 19 19 18 19 19 19
23 24 25 26 27 28 28 28 29 29 29 28 27 25 23 23 22 22 21 21 21 20 20 20 20 20 20 20 19 19 19 19 19 19 19 19 19 19 19 19 19 19 19 19 19 18 18 19 19
25 26 25 26 27 28 28 29 29 29 28 27 26 24 23 22 22 22 22 21 21 20 20 20 20 20 20 20 19 19 19 19 19 19 19 19 19 19 19 19 19 19 19 19 19 19 18 18 19
27 26 24 25 27 28 28 28 28 28 27 26 25 24 22 22 22 22 22 21 21 20 20 20 20 20 20 20 19 19 19 19 19 19 19 19 19 19 19 19 18 19 19 19 19 18 18 18 18
27 25 25 26 26 27 28 27 26 26 25 24 24 24 22 21 21 22 22 22 21 20 20 20 20 20 20 20 19 19 19 19 19 19 19 19 19 19 19 19 19 19 19 19 19 19 18 18 18
27 27 26 25 25 26 27 26 25 25 24 22 22 22 20 20 21 21 22 21 21 21 20 20 19 19 19 19 19 19 19 19 19 19 19 19 19 19 19 19 19 19 19 19 19 19 19 18 18
28 25 24 25 26 25 26 26 25 24 22 21 20 20 19 20 21 21 21 21 21 21 20 20 20 19 19 19 19 19 19 19 19 19 19 19 19 19 18 18 18 18 19 19 19 19 19 19 18
29 24 24 26 26 25 24 23 24 23 21 20 20 19 19 20 20 20 20 20 20 20 20 20 19 19 19 19 19 19 19 19 19 19 19 19 18 18 18 18 18 18 18 19 19 19 19 19 19
28 26 26 27 26 25 24 22 21 22 20 19 18 18 19 19 19 19 19 19 19 19 19 19 19 19 19 19 19 19 19 18 18 18 18 18 18 18 18 18 18 18 18 19 19 18 19 19 18
27 26 27 26 25 25 24 22 20 19 18 18 18 18 18 18 18 18 18 18 18 19 19 19 19 19 19 19 19 19 18 18 18 18 18 18 18 18 18 18 18 18 18 18 18 18 18 18 18
26 25 24 24 23 22 21 20 19 19 19 19 18 18 18 18 18 18 18 18 18 18 18 18 18 18 18 18 18 18 18 18 18 18 18 18 18 18 18 18 18 18 18 18 18 18 18 19 19
26 25 25 24 23 23 22 21 20 19 19 19 19 18 18 18 18 18 18 17 17 17 17 17 17 17 18 18 18 18 18 18 18 18 18 18 18 18 18 18 18 18 18 18 18 18 18 19 19
26 25 25 24 24 23 23 21 20 19 19 19 19 19 18 18 18 18 17 17 17 16 16 16 16 17 17 17 17 18 18 18 18 18 18 18 18 18 18 18 18 18 18 18 18 18 18 19 19
27 25 23 24 24 24 23 20 20 19 20 19 19 19 18 18 18 17 17 16 16 16 16 16 16 16 16 16 16 17 17 17 17 18 18 18 18 18 18 18 18 18 18 18 18 18 18 19 19
26 24 23 23 25 25 23 20 20 20 20 20 19 19 19 18 18 17 16 16 16 16 15 15 15 15 15 16 16 16 16 16 17 17 17 18 18 18 18 18 18 18 18 18 18 18 18 18 18
25 26 25 23 24 24 22 20 21 20 20 20 20 19 19 18 17 17 16 15 15 15 15 15 15 15 15 15 15 16 16 16 16 17 17 17 17 17 17 17 17 18 18 18 18 18 18 18 18
28 27 26 24 24 23 22 21 21 20 20 20 19 19 18 17 17 16 15 15 15 14 14 14 14 14 14 14 15 15 15 16 16 16 16 17 17 17 17 17 17 17 17 17 17 18 18 18 18
28 27 26 24 23 24 22 21 21 20 20 19 19 18 18 17 16 16 15 14 14 14 14 14 13 14 14 14 14 14 14 15 15 16 16 16 16 16 17 17 17 17 17 17 17 17 17 17 17
27 26 25 24 23 23 22 21 20 20 20 19 19 18 17 17 16 15 15 14 14 13 13 13 13 13 13 13 14 14 14 14 15 15 15 16 16 16 16 16 17 17 17 17 17 17 17 17 17
26 25 25 24 23 23 23 21 20 20 20 19 18 18 17 16 16 15 14 14 13 13 13 13 13 13 13 13 13 13 13 14 14 14 15 15 15 16 16 16 16 16 16 16 17 17 17 17 17
24 24 24 24 23 23 24 22 20 20 19 19 18 18 17 16 15 15 14 14 13 13 13 13 13 13 13 13 13 13 13 13 14 14 14 15 15 15 15 16 16 16 16 16 16 16 16 16 16
24 24 24 24 24 23 24 23 20 19 19 19 18 17 16 16 15 14 14 13 13 13 13 12 12 12 12 12 13 13 13 13 13 14 14 14 15 15 15 15 15 15 16 16 16 16 16 16 16
25 24 23 23 22 23 23 22 19 19 19 19 18 17 16 16 15 14 14 13 13 13 13 12 12 12 12 12 12 12 13 13 13 13 13 14 14 14 15 15 15 15 15 15 15 16 16 16 16
25 24 23 22 23 23 23 21 19 20 19 19 18 17 16 16 15 14 14 13 13 13 13 12 12 12 12 12 12 12 12 12 13 13 13 13 14 14 14 14 14 15 15 15 15 15 15 15 15
24 25 24 23 24 24 23 21 19 20 19 19 18 17 17 16 15 15 14 14 13 13 13 12 12 12 12 12 12 12 12 12 12 13 13 13 13 13 14 14 14 14 14 15 15 15 15 15 15
24 23 24 23 22 22 23 22 20 19 19 19 18 17 17 16 15 15 14 14 13 13 13 13 12 12 12 12 12 12 12 12 12 12 13 13 13 13 13 14 14 14 14 14 14 15 15 15 15
24 24 24 23 23 22 21 19 20 19 19 18 18 17 17 16 16 15 14 14 13 13 13 13 12 12 12 12 12 12 12 12 12 12 12 12 13 13 13 13 13 14 14 14 14 14 14 14 14
23 23 23 22 22 23 21 19 20 20 19 19 18 17 17 16 16 15 15 14 14 13 13 13 13 12 12 12 12 12 12 12 12 12 12 12 12 12 13 13 13 13 13 14 14 14 14 14 14
Wind_Speed
8 9 7 3 3 2 12 11 11 9 10 10 11 12 17 15 10 8 4 10 17 16 16 13 12 11 10 9 8 8 8 7 7 6 6 5 4 4 4 4 4 4 4 4 4 4 4 5 5
9 7 5 3 1 8 10 9 11 11 10 10 12 15 17 15 13 9 6 11 16 16 15 14 13 10 9 8 7 7 7 6 6 5 5 4 4 4 3 3 3 3 3 4 4 4 4 4 4
10 7 4 2 7 10 10 9 10 12 10 10 12 14 10 9 10 7 9 11 14 14 15 16 12 10 9 8 7 6 6 5 5 4 4 3 3 3 2 3 3 3 3 3 3 3 3 3 3
6 3 3 2 12 11 11 9 10 12 13 14 12 11 10 10 8 10 10 11 13 13 16 15 12 9 8 7 7 6 5 5 4 4 3 3 3 2 2 2 3 3 3 3 3 3 2 2 2
5 2 2 6 12 12 12 12 11 13 15 15 16 14 12 12 12 11 8 10 11 12 15 14 12 9 8 7 6 6 5 5 5 4 3 3 3 2 3 3 3 3 3 3 3 2 2 1 1
3 1 2 5 11 11 12 13 13 15 15 14 13 14 10 10 9 7 7 7 9 10 12 14 13 11 9 8 7 7 6 6 6 5 5 4 4 4 3 3 3 2 2 2 2 2 1 1 0
4 2 2 7 9 9 12 14 15 15 16 14 10 11 7 10 7 6 6 6 7 8 9 11 12 11 11 10 9 9 8 8 7 7 6 6 6 6 5 5 4 4 3 3 3 2 2 2 2
4 2 4 5 6 8 11 14 13 15 14 14 12 9 6 6 6 7 8 8 7 6 5 4 7 8 11 12 12 11 10 10 9 9 9 8 8 9 9 8 8 6 5 4 4 4 4 4 4
3 3 3 3 5 8 11 11 12 14 16 17 15 12 8 7 9 10 10 10 9 9 7 5 3 1 2 8 12 13 12 11 11 11 12 11 11 12 13 13 12 10 8 7 6 6 6 7 8
2 4 4 8 10 11 14 13 8 10 15 13 14 13 11 11 12 12 11 10 11 10 9 8 6 5 5 2 4 9 10 11 12 12 13 13 13 12 11 14 15 13 11 10 9 9 9 10 10
5 6 7 9 11 11 10 12 14 9 10 10 10 11 11 12 11 11 10 9 8 7 8 8 7 6 5 3 1 2 2 5 10 12 12 13 12 9 8 10 12 13 12 11 12 11 11 12 12
8 9 8 10 10 10 10 9 11 13 7 7 8 9 10 10 10 9 8 8 7 7 8 8 8 6 5 4 2 2 2 3 3 7 9 9 5 4 5 6 11 12 11 11 10 10 13 14 13
10 9 12 13 15 16 16 14 11 10 7 7 8 9 9 10 9 7 7 8 8 8 8 8 8 7 6 4 3 3 2 3 4 5 7 7 5 5 4 4 5 7 9 9 6 7 7 6 6
11 12 11 11 11 11 13 11 7 7 5 6 7 8 9 9 9 9 10 10 10 10 9 7 7 7 6 5 4 3 3 3 4 5 8 8 6 5 5 5 3 4 5 6 7 5 5 3 2
12 12 10 7 8 8 7 10 8 5 4 7 7 7 7 8 8 9 10 9 9 9 9 8 7 6 7 7 6 4 4 5 3 4 7 8 7 6 5 5 4 3 6 6 4 5 4 4 3
10 9 6 4 3 4 2 5 6 4 5 6 5 6 6 6 8 9 9 9 9 8 9 8 8 8 7 7 6 4 5 4 4 5 6 8 8 8 5 5 4 5 6 3 3 2 2 2 2
7 6 5 5 2 3 5 6 5 4 5 6 6 6 6 8 9 9 10 10 9 8 8 9 8 8 8 7 6 5 5 4 4 5 5 6 8 8 4 5 5 5 3 4 4 3 3 2 2
4 4 2 6 4 6 6 6 5 4 5 7 7 8 9 10 10 11 11 10 10 10 10 10 9 9 8 6 5 5 5 5 4 4 4 7 7 8 6 5 5 4 4 4 3 3 3 2 2
8 7 1 8 5 3 5 6 5 4 6 7 8 10 11 12 12 11 11 11 11 11 11 10 10 9 8 7 6 5 5 5 5 4 5 6 7 7 5 5 5 5 5 5 5 4 3 2 2
8 7 3 7 4 1 3 5 6 4 5 6 8 9 11 11 11 11 11 11 11 11 11 11 11 9 8 7 6 5 5 5 5 4 4 5 5 5 5 6 6 6 5 6 6 4 3 3 2
6 6 6 1 3 3 4 4 7 6 5 6 8 9 10 10 12 11 11 11 11 12 12 12 11 11 9 9 6 6 5 4 4 5 4 4 4 3 3 4 5 6 6 6 6 6 6 4 3
6 6 4 3 4 5 6 2 7 5 5 7 8 9 9 10 10 10 10 11 11 11 11 11 12 11 10 9 7 7 6 5 6 5 4 4 3 3 3 4 5 6 5 6 6 6 5 6 5
4 4 5 6 8 7 6 3 7 5 5 7 8 8 9 9 10 10 10 10 11 11 10 10 11 11 11 10 9 7 6 6 5 5 5 4 3 2 2 2 3 4 4 6 6 6 6 6 5
3 6 8 8 8 7 2 2 6 4 7 7 8 8 8 8 9 9 9 8 9 9 9 10 10 10 10 10 9 8 8 8 8 7 5 4 3 3 3 2 2 2 3 5 5 6 7 6 6
5 7 5 5 6 1 3 2 6 6 5 6 6 7 7 7 7 8 9 8 9 9 10 10 10 10 10 11 10 9 9 8 7 7 6 5 3 3 3 3 2 2 3 4 4 5 6 6 6
5 5 6 6 4 2 3 4 7 6 4 3 5 6 7 7 6 7 8 8 8 9 9 10 10 10 10 10 10 9 9 6 5 6 5 5 4 4 4 3 2 2 2 3 4 4 5 5 5
6 4 4 6 9 5 4 8 7 5 4 4 5 6 6 6 7 7 7 7 8 8 8 9 9 9 10 10 10 9 9 7 7 7 6 5 4 4 5 4 3 1 1 2 3 3 4 4 5
3 6 5 5 6 4 2 5 4 4 4 5 5 6 6 6 6 6 6 7 7 6 7 7 8 8 9 9 9 9 8 8 8 7 8 7 6 6 5 4 4 3 2 0 1 2 2 3 3
3 3 3 5 2 4 3 4 5 4 3 3 5 6 5 5 5 4 4 5 5 6 6 6 7 8 8 9 8 9 9 8 8 8 8 8 7 7 6 5 5 4 3 1 1 1 2 2 2
2 5 5 5 5 2 2 3 5 4 3 3 4 4 5 4 4 4 4 4 5 5 6 6 7 7 7 8 8 8 9 9 9 9 9 8 8 7 7 6 5 5 4 3 2 1 2 2 2
Wind_Direction
222 223 226 251 255 74 58 57 57 45 48 53 50 63 71 57 56 87 153 126 118 119 125 130 125 123 120 119 120 120 119 119 121 122 121 118 114 107 98 87 79 74 70 71 69 65 64 60 54
245 222 230 245 325 69 61 59 60 52 58 68 62 58 64 60 69 96 115 106 119 124 134 130 130 128 127 126 126 125 123 121 121 124 125 123 119 112 105 98 97 91 80 80 78 76 71 65 57
253 238 250 247 57 64 67 63 64 57 51 69 75 59 49 49 71 97 108 120 117 121 121 124 133 133 132 133 135 135 133 130 130 131 131 131 129 126 121 109 105 97 89 86 86 85 83 71 55
239 235 262 62 73 60 60 66 69 65 54 55 69 70 62 52 79 101 114 119 113 118 119 129 134 138 141 144 147 147 149 152 153 150 148 145 145 151 148 135 121 109 101 92 92 94 96 83 57
239 284 10 79 77 67 59 55 65 68 58 61 77 84 72 60 77 101 112 110 116 119 125 138 144 150 156 158 161 168 173 175 177 177 177 177 180 181 171 161 146 135 120 107 103 105 110 98 63
272 53 41 87 84 69 57 50 52 59 55 50 78 90 77 58 63 86 101 108 113 122 129 139 155 163 169 172 178 184 190 194 196 198 201 203 204 198 190 182 173 163 154 139 130 133 142 155 213
283 262 138 98 85 68 61 54 51 53 46 34 53 90 82 43 34 67 84 90 101 113 127 147 161 174 180 182 187 194 200 205 207 209 210 211 212 214 211 205 196 188 177 169 169 176 188 205 230
295 322 44 63 85 70 64 65 60 57 54 39 42 67 67 26 26 48 55 58 61 72 93 123 153 174 186 188 195 199 203 207 211 215 217 217 220 222 220 213 202 199 197 197 197 203 211 222 233
285 30 48 63 88 70 61 72 74 69 66 60 57 64 54 28 37 40 38 37 34 30 29 41 54 37 184 193 193 195 203 209 212 217 221 222 226 221 215 217 198 196 201 206 208 212 219 227 232
37 68 56 58 78 83 61 45 51 69 52 45 44 45 41 37 38 36 34 29 22 15 10 17 14 7 354 333 181 196 203 203 210 218 213 215 228 231 218 203 190 195 202 207 212 218 225 232 229
53 84 82 71 83 99 86 57 38 75 52 39 33 30 33 38 38 34 30 26 19 10 8 6 3 359 354 346 321 236 227 208 216 227 219 214 228 224 206 178 183 195 203 210 210 215 226 228 227
84 62 70 70 66 76 79 79 61 58 59 51 46 35 32 33 33 29 23 17 11 10 5 356 355 349 344 343 330 298 278 245 235 235 234 213 218 228 226 200 188 191 199 208 200 209 220 225 223
105 96 87 86 85 86 86 83 78 61 60 61 49 44 35 31 23 22 21 14 6 6 1 358 349 345 339 332 319 315 292 283 280 270 255 226 203 216 227 227 200 200 201 196 200 209 228 219 227
121 121 113 106 99 94 94 84 73 56 46 55 47 44 34 28 17 17 18 8 0 357 351 350 343 339 332 329 314 295 287 270 265 268 271 261 227 218 221 226 215 208 224 208 193 204 235 226 217
131 135 129 127 130 137 114 72 61 48 43 41 33 38 33 28 16 20 13 1 356 349 344 345 334 337 333 325 316 311 294 279 257 247 256 265 260 242 230 221 215 206 223 230 209 215 221 213 202
179 171 145 131 156 165 212 78 60 34 33 41 27 27 36 33 19 22 9 358 352 345 341 340 336 338 329 322 306 296 290 284 274 263 253 256 256 251 248 227 220 215 215 213 204 219 219 208 203
216 231 161 144 127 111 87 91 77 43 25 25 27 24 28 28 18 21 13 359 348 343 342 341 342 338 328 320 305 293 291 283 271 261 253 258 259 253 243 235 226 219 212 205 206 198 204 201 203
305 297 172 132 93 88 95 108 95 57 35 20 20 20 24 19 12 18 11 1 354 353 351 348 345 339 330 321 314 308 301 296 287 273 260 256 256 251 232 228 226 220 212 201 196 192 204 191 186
316 310 29 104 100 100 119 120 105 64 48 24 20 18 17 10 5 17 11 7 1 358 355 349 347 344 340 331 321 313 306 304 296 284 280 274 263 253 229 224 218 221 216 206 196 193 198 208 184
304 309 84 109 104 311 159 142 122 87 61 41 23 21 17 6 0 10 10 7 2 360 356 348 346 343 339 327 319 303 297 295 288 283 280 278 265 253 242 230 219 213 214 211 198 190 182 207 197
320 354 358 69 141 227 230 184 146 127 83 54 33 28 18 9 6 7 7 4 3 2 356 349 348 348 343 336 331 325 316 312 306 299 289 280 279 262 245 240 230 219 209 212 204 194 184 197 213
342 34 341 291 244 222 211 223 146 129 81 46 32 26 21 15 8 6 7 3 1 1 356 352 352 351 348 345 343 337 331 320 311 313 308 306 295 281 260 246 229 222 213 206 205 198 194 189 209
359 332 282 260 255 263 225 258 134 125 53 34 27 22 21 14 7 7 9 4 359 359 358 357 354 355 353 351 350 347 340 327 320 319 315 314 312 297 289 268 242 225 215 205 200 198 197 197 203
291 259 245 242 252 252 200 273 102 63 33 14 15 19 20 13 10 7 8 7 358 359 1 358 360 355 353 353 356 356 346 340 337 333 327 322 315 312 317 301 271 241 229 212 201 197 195 197 198
264 293 274 231 217 142 77 80 84 73 49 17 12 18 15 19 17 10 8 6 359 0 2 358 1 358 357 356 359 357 352 344 340 337 336 334 331 328 321 313 281 256 239 215 198 194 193 195 195
309 299 317 318 331 102 149 87 104 94 84 39 31 32 22 21 16 15 11 4 358 0 2 1 2 3 1 359 358 356 355 348 341 344 349 354 347 334 330 327 301 268 237 211 193 195 196 198 201
314 330 341 301 289 278 131 119 128 123 80 42 29 28 23 16 15 16 11 6 3 3 5 5 5 6 4 2 360 2 2 359 357 358 359 358 353 348 353 353 346 323 254 203 187 190 192 190 197
307 323 300 289 334 323 111 107 105 87 45 22 23 25 19 15 16 17 13 7 6 5 5 5 9 9 4 4 5 7 3 4 4 7 6 3 359 358 359 6 11 10 13 135 154 161 174 172 182
311 270 314 296 284 321 352 76 74 82 67 25 25 27 16 13 15 16 16 10 7 10 9 6 14 13 8 7 5 5 4 10 14 13 6 5 4 5 8 13 13 14 18 30 90 119 136 153 156
334 342 333 325 345 322 307 107 99 102 102 68 41 23 12 8 18 28 21 16 9 10 11 15 18 17 13 8 8 7 8 15 17 15 9 9 9 9 12 15 20 29 34 36 51 89 128 141 151
Height
1511 1512 1513 1516 1517 1516 1519 1514 1509 1508 1506 1507 1508 1510 1515 1520 1526 1537 1537 1537 1537 1538 1540 1542 1543 1544 1546 1547 1548 1549 1550 1551 1552 1553 1554 1555 1556 1557 1557 1558 1558 1559 1559 1560 1560 1560 1561 1561 1562
1511 1514 1517 1517 1517 1525 1524 1513 1512 1510 1509 1510 1511 1514 1518 1524 1530 1534 1537 1539 1539 1540 1541 1543 1544 1545 1547 1548 1549 1550 1551 1552 1553 1554 1555 1555 1556 1557 1557 1558 1558 1559 1559 1560 1560 1561 1561 1562 1562
1513 1515 1518 1515 1516 1524 1523 1514 1512 1511 1511 1511 1515 1520 1525 1531 1534 1536 1539 1540 1541 1542 1543 1544 1545 1546 1547 1548 1549 1550 1551 1552 1553 1554 1555 1555 1556 1557 1557 1558 1558 1559 1559 1560 1560 1560 1561 1562 1562
1515 1517 1517 1515 1520 1516 1515 1513 1512 1514 1514 1515 1517 1525 1533 1535 1537 1539 1540 1542 1543 1544 1544 1545 1546 1547 1548 1549 1550 1551 1551 1552 1553 1554 1554 1555 1556 1556 1557 1557 1558 1558 1559 1559 1560 1560 1561 1562 1562
1517 1517 1519 1521 1520 1516 1514 1514 1515 1516 1518 1520 1523 1531 1537 1539 1540 1541 1543 1544 1544 1545 1545 1546 1547 1548 1549 1549 1550 1551 1551 1552 1553 1553 1554 1555 1555 1556 1556 1557 1557 1558 1558 1559 1559 1560 1561 1561 1562
1518 1517 1528 1529 1521 1517 1517 1518 1518 1520 1522 1525 1527 1533 1540 1542 1542 1543 1544 1545 1546 1546 1546 1547 1548 1548 1549 1549 1550 1550 1551 1552 1552 1553 1553 1554 1555 1555 1556 1556 1557 1557 1557 1558 1559 1559 1560 1561 1562
1518 1519 1524 1522 1523 1522 1520 1522 1524 1526 1528 1531 1532 1535 1542 1544 1544 1545 1545 1546 1547 1547 1547 1547 1547 1548 1548 1549 1549 1550 1550 1551 1551 1552 1552 1553 1554 1554 1555 1555 1556 1556 1557 1557 1558 1559 1559 1560 1561
1517 1516 1523 1527 1527 1527 1525 1527 1530 1532 1535 1537 1536 1540 1545 1546 1546 1546 1546 1546 1547 1547 1547 1547 1547 1547 1547 1548 1549 1549 1549 1550 1550 1551 1551 1552 1552 1553 1554 1554 1555 1555 1556 1556 1557 1558 1559 1560 1560
1517 1523 1532 1528 1526 1529 1528 1530 1534 1537 1539 1541 1543 1546 1548 1547 1547 1546 1546 1546 1547 1547 1547 1547 1547 1546 1547 1547 1547 1548 1548 1549 1549 1549 1550 1550 1551 1552 1552 1553 1553 1554 1555 1555 1556 1557 1558 1559 1560
1517 1530 1531 1524 1524 1530 1533 1535 1536 1541 1543 1546 1548 1549 1549 1548 1547 1547 1547 1546 1547 1547 1547 1547 1546 1546 1546 1546 1545 1545 1546 1546 1547 1547 1548 1549 1549 1550 1551 1551 1552 1553 1553 1554 1555 1556 1557 1558 1559
1519 1527 1526 1526 1528 1532 1536 1541 1542 1543 1549 1551 1552 1551 1550 1549 1549 1548 1548 1547 1547 1547 1546 1545 1545 1544 1544 1544 1543 1543 1544 1544 1544 1545 1546 1546 1548 1549 1549 1550 1550 1551 1552 1552 1553 1554 1555 1557 1558
1524 1528 1528 1531 1533 1534 1538 1544 1548 1550 1554 1554 1554 1553 1552 1551 1550 1550 1549 1548 1547 1546 1545 1544 1543 1542 1542 1542 1541 1541 1541 1541 1542 1542 1543 1544 1545 1546 1548 1548 1548 1549 1550 1550 1552 1553 1554 1556 1558
1527 1533 1535 1537 1538 1541 1544 1548 1551 1555 1556 1555 1555 1554 1553 1552 1552 1551 1550 1549 1547 1546 1544 1543 1541 1541 1540 1539 1538 1538 1538 1538 1539 1539 1541 1542 1542 1543 1545 1546 1547 1548 1549 1549 1551 1552 1554 1556 1558
1528 1533 1536 1539 1541 1543 1546 1550 1554 1557 1556 1556 1555 1554 1554 1553 1552 1551 1550 1548 1547 1545 1544 1542 1540 1539 1537 1537 1536 1535 1535 1535 1535 1535 1536 1538 1539 1540 1541 1542 1544 1545 1547 1548 1549 1551 1552 1555 1556
1529 1533 1537 1539 1540 1544 1545 1553 1556 1558 1557 1556 1556 1555 1554 1554 1553 1551 1550 1548 1547 1545 1543 1540 1539 1537 1535 1534 1533 1532 1531 1531 1532 1532 1532 1533 1535 1536 1537 1538 1540 1541 1543 1545 1547 1549 1550 1552 1554
1527 1532 1541 1540 1539 1541 1545 1558 1558 1558 1557 1557 1556 1556 1555 1554 1553 1552 1550 1549 1546 1544 1542 1539 1537 1535 1533 1531 1529 1528 1528 1528 1527 1527 1528 1528 1530 1531 1532 1534 1535 1537 1539 1541 1543 1545 1548 1549 1551
1528 1537 1542 1542 1538 1539 1544 1557 1558 1558 1558 1557 1556 1556 1555 1554 1554 1552 1550 1548 1546 1543 1541 1538 1535 1532 1530 1528 1526 1525 1524 1524 1523 1523 1523 1524 1525 1526 1527 1529 1531 1533 1535 1537 1539 1541 1544 1546 1548
1534 1532 1535 1541 1540 1541 1547 1555 1557 1558 1558 1558 1557 1556 1556 1555 1554 1552 1550 1548 1545 1542 1539 1536 1533 1530 1527 1525 1523 1522 1521 1520 1519 1519 1519 1519 1520 1521 1522 1524 1526 1528 1530 1532 1535 1537 1540 1543 1545
1524 1527 1533 1539 1540 1542 1547 1553 1556 1558 1558 1559 1558 1558 1557 1557 1555 1552 1550 1547 1544 1541 1538 1535 1531 1528 1525 1522 1520 1518 1517 1516 1515 1515 1515 1515 1515 1516 1517 1519 1520 1522 1525 1527 1530 1533 1536 1539 1542
1524 1528 1532 1539 1540 1542 1546 1551 1554 1557 1558 1560 1559 1559 1558 1557 1555 1553 1550 1547 1543 1540 1536 1533 1530 1526 1523 1520 1518 1516 1514 1513 1512 1511 1511 1511 1511 1511 1512 1514 1516 1518 1521 1523 1525 1528 1531 1534 1537
1527 1532 1535 1539 1541 1543 1546 1552 1554 1556 1557 1559 1559 1559 1558 1557 1555 1553 1550 1546 1543 1539 1535 1532 1528 1525 1521 1519 1516 1513 1511 1510 1509 1508 1508 1507 1507 1507 1508 1509 1511 1513 1515 1518 1520 1523 1526 1529 1533
1534 1535 1536 1538 1544 1544 1545 1557 1555 1554 1556 1558 1559 1559 1559 1557 1555 1553 1549 1546 1543 1539 1535 1531 1527 1523 1520 1517 1514 1512 1510 1508 1507 1506 1505 1504 1504 1504 1505 1506 1507 1508 1510 1513 1515 1517 1521 1524 1527
1537 1536 1536 1536 1539 1542 1539 1547 1557 1553 1557 1558 1559 1559 1559 1557 1555 1553 1550 1546 1543 1539 1535 1530 1526 1523 1519 1516 1513 1511 1508 1506 1504 1503 1502 1502 1501 1501 1501 1502 1503 1504 1506 1508 1510 1513 1516 1519 1522
1536 1535 1534 1534 1536 1547 1538 1545 1558 1556 1559 1559 1559 1559 1558 1557 1555 1552 1550 1546 1542 1539 1534 1530 1526 1522 1519 1516 1513 1510 1507 1505 1503 1502 1500 1499 1499 1499 1499 1499 1499 1500 1502 1503 1505 1508 1511 1514 1517
1534 1539 1545 1546 1549 1546 1538 1544 1560 1557 1557 1559 1559 1559 1558 1556 1554 1552 1549 1546 1542 1538 1534 1530 1526 1523 1519 1516 1513 1510 1507 1505 1503 1501 1499 1498 1497 1496 1496 1496 1496 1497 1498 1500 1501 1504 1506 1509 1512
1535 1538 1550 1557 1547 1545 1540 1548 1557 1554 1557 1558 1558 1558 1558 1556 1554 1552 1549 1546 1543 1539 1535 1531 1527 1523 1520 1516 1513 1510 1507 1504 1502 1501 1499 1498 1496 1495 1495 1494 1494 1495 1495 1496 1498 1500 1502 1505 1507
1538 1534 1535 1544 1537 1540 1539 1548 1555 1553 1555 1557 1557 1557 1557 1556 1554 1552 1549 1546 1543 1540 1536 1532 1528 1524 1521 1518 1514 1510 1507 1505 1503 1501 1499 1497 1496 1494 1493 1493 1492 1493 1493 1494 1495 1497 1500 1502 1504
1539 1539 1538 1542 1550 1551 1543 1546 1554 1555 1555 1556 1556 1557 1557 1556 1554 1552 1549 1547 1544 1540 1537 1533 1529 1526 1523 1519 1516 1512 1509 1506 1504 1502 1499 1498 1496 1494 1492 1492 1491 1491 1491 1492 1493 1495 1497 1499 1500
1539 1538 1538 1539 1542 1555 1558 1562 1550 1553 1555 1556 1556 1557 1556 1555 1554 1552 1549 1547 1544 1541 1538 1534 1531 1527 1524 1521 1517 1514 1511 1508 1505 1503 1501 1498 1496 1494 1493 1491 1490 1490 1491 1491 1492 1494 1495 1497 1498
1541 1542 1543 1550 1546 1543 1552 1563 1550 1552 1554 1555 1556 1557 1556 1555 1553 1551 1550 1547 1545 1542 1539 1535 1532 1529 1526 1522 1519 1516 1513 1510 1507 1505 1502 1500 1498 1496 1494 1492 1491 1491 1491 1491 1492 1493 1495 1496 1498